Temperature
15 15 15 16 16 16 15 15 15 15 16 16 17 17 16 16 17 16 16 16 16 16 16 16 16 16 16 15 15 15 15 15 14 14 14 14 14 14
15 15 15 15 15 15 15 15 15 15 15 16 16 16 16 16 16 16 16 16 16 16 15 15 15 15 15 15 15 15 14 14 14 14 14 14 14 13
14 14 15 15 15 15 15 15 15 15 15 15 15 16 16 16 16 16 15 15 15 15 15 15 15 15 15 15 14 14 14 14 14 14 13 13 13 13
14 14 14 14 15 15 15 15 15 15 15 15 15 15 15 15 15 15 15 15 15 14 14 14 14 14 14 14 14 14 14 14 14 13 13 13 13 13
13 13 14 14 14 14 14 14 15 14 14 15 15 15 15 15 14 14 14 14 14 14 14 14 14 14 14 14 14 14 13 13 13 13 13 13 13 12
13 13 13 13 13 14 14 14 14 14 14 14 14 14 14 14 14 14 14 13 13 13 13 13 13 13 13 13 13 13 13 13 13 13 12 12 12 12
12 12 12 13 13 13 13 13 14 14 14 14 14 14 13 13 13 13 13 13 13 13 13 13 13 13 13 13 13 13 13 12 12 12 12 12 11 11
12 12 12 12 12 13 13 13 13 13 13 13 13 13 13 13 13 13 13 13 12 12 12 12 12 12 12 12 12 12 12 12 12 12 11 11 11 11
12 12 12 12 12 12 12 12 13 13 13 13 13 13 13 13 13 13 13 13 13 12 12 12 11 11 11 11 11 11 11 11 11 11 11 10 10 10
11 11 11 12 12 12 12 12 12 12 13 13 13 13 13 13 13 13 13 12 12 12 12 11 11 11 10 10 10 10 10 10 10 10 10 10 9 9
11 11 11 12 12 12 12 12 12 12 12 13 13 13 13 13 13 13 12 12 12 11 11 11 10 10 10 10 10 10 10 9 9 9 9 9 9 9
11 11 11 11 11 12 12 12 12 12 12 12 13 13 13 13 13 13 13 12 12 11 11 11 11 10 9 9 9 9 9 9 9 9 8 8 8 8
10 11 11 11 11 11 12 12 12 12 12 12 13 13 13 12 12 12 12 13 13 12 12 11 11 11 10 9 9 8 8 8 8 8 8 8 8 8
10 11 11 11 11 11 11 12 12 12 12 12 12 12 12 12 12 12 12 12 12 12 12 12 11 11 11 10 9 8 8 7 7 7 7 7 7 7
10 10 11 11 11 11 11 11 12 12 12 12 12 12 12 12 12 12 11 11 11 11 11 11 11 11 11 10 10 9 8 7 7 7 7 7 7 7
10 11 11 11 11 11 11 11 11 11 12 12 12 12 12 12 11 11 11 11 11 11 11 10 10 10 10 10 10 9 8 8 7 7 7 7 7 7
10 11 11 11 11 11 11 11 11 11 11 12 12 12 11 11 11 11 11 11 11 11 10 10 10 10 9 9 9 9 8 7 7 7 6 6 7 7
10 11 11 11 11 11 11 11 11 11 11 11 11 11 11 11 11 11 11 11 11 11 11 10 10 9 9 8 8 8 8 7 7 7 6 6 7 7
10 11 11 11 11 11 11 11 11 11 11 11 11 11 11 11 11 11 10 10 10 10 10 10 9 9 9 9 8 8 7 7 7 7 6 7 7 7
10 10 11 11 11 11 11 11 11 11 11 11 11 11 11 11 11 10 10 10 10 10 9 9 9 8 8 8 8 8 8 7 7 7 7 7 7 7
10 10 11 11 11 11 11 11 11 11 11 11 11 11 11 10 10 10 10 9 9 9 9 8 8 8 8 8 8 8 8 7 7 7 7 7 7 7
10 10 11 11 11 11 11 11 11 11 11 11 11 10 10 10 10 10 10 9 9 9 8 8 8 8 8 8 8 8 8 7 7 7 7 8 8 8
10 10 10 10 11 11 11 11 11 11 11 10 10 10 10 10 10 10 9 9 9 8 8 8 8 8 8 7 7 7 7 7 7 7 8 8 8 8
Wind_Speed
5 6 6 6 6 6 6 6 6 6 6 5 4 4 6 9 14 16 15 19 19 18 17 16 15 14 12 10 9 8 7 7 7 6 5 4 3 2
3 4 5 4 6 6 7 6 6 6 5 5 4 3 4 7 11 14 14 18 18 17 16 16 15 14 12 10 9 8 7 7 6 5 4 3 2 1
1 2 4 4 5 6 6 6 6 5 5 3 2 2 4 6 7 9 11 12 12 14 14 14 13 12 11 10 9 8 7 7 6 5 5 4 3 2
2 1 1 2 5 5 5 6 6 6 5 5 3 3 3 6 7 7 7 9 9 12 13 12 12 11 10 10 9 9 8 7 7 6 6 5 5 5
1 1 1 1 2 3 4 5 5 6 4 5 4 3 3 4 6 6 6 5 7 8 9 9 10 10 10 10 10 10 9 9 9 9 8 8 8 9
2 1 1 1 1 2 3 4 5 6 5 6 5 4 3 5 6 7 6 5 6 8 11 13 14 13 12 11 12 12 12 12 13 13 13 14 14 14
2 2 1 2 2 2 3 4 5 5 5 6 6 4 5 6 7 5 8 8 6 5 8 8 11 11 11 12 13 14 15 15 16 16 17 16 16 15
2 2 2 3 3 3 5 5 5 5 6 5 4 6 6 6 6 9 10 9 5 4 6 6 6 7 8 10 14 15 16 17 17 17 17 17 16 15
2 1 2 3 4 4 4 5 3 4 6 6 6 6 7 8 10 10 10 7 5 7 7 6 5 7 8 12 15 15 16 16 16 16 15 15 15 14
4 2 3 3 3 4 5 5 4 3 2 4 5 6 6 8 10 9 11 10 9 5 4 4 3 4 6 10 13 13 14 14 13 13 13 13 13 12
5 4 3 3 4 5 5 5 5 4 4 5 6 6 10 14 14 12 12 13 8 3 3 4 4 4 3 3 8 10 11 11 11 10 11 11 11 11
4 5 6 4 4 5 4 5 5 3 4 5 6 7 8 12 16 12 13 13 8 4 3 4 5 4 3 2 2 5 7 8 8 7 8 10 10 10
3 4 4 5 6 7 5 4 4 4 5 6 6 6 7 7 7 6 7 10 8 4 7 6 5 3 4 4 2 2 3 4 5 6 7 8 9 9
2 2 3 5 6 6 5 6 8 7 6 6 6 6 6 6 7 7 9 8 6 6 13 8 5 5 5 4 3 3 2 3 4 4 7 10 10 9
2 2 4 6 6 5 7 8 7 6 6 6 6 5 5 6 8 7 8 10 12 11 10 6 6 6 5 5 5 4 3 3 5 4 4 4 4 5
3 4 6 7 6 6 6 5 5 5 5 6 6 5 5 6 7 6 6 7 7 5 8 6 11 9 4 4 5 4 4 4 4 3 3 2 3 5
2 3 3 3 4 4 4 4 4 4 5 4 5 6 6 7 5 4 4 4 4 3 3 4 11 12 7 5 4 4 4 3 3 4 4 2 3 6
4 3 3 3 3 3 4 3 3 4 4 5 5 5 5 5 5 4 4 5 5 4 3 3 4 4 4 6 4 5 3 3 3 3 3 3 3 5
5 3 3 3 3 3 3 3 3 3 3 5 5 5 5 5 5 5 5 5 5 4 3 2 3 4 3 2 1 1 4 4 4 3 3 4 4 4
3 3 2 3 3 3 3 3 3 4 4 4 5 5 5 5 5 5 5 5 5 4 3 2 2 3 5 5 4 2 3 4 4 4 3 2 3 3
1 1 1 2 2 3 3 4 4 4 4 4 4 5 5 5 5 5 5 7 5 4 4 4 2 4 4 4 3 1 2 4 5 5 4 3 2 2
2 2 2 2 2 3 3 4 4 4 5 4 4 4 4 5 6 6 6 5 4 4 5 3 3 3 3 3 4 3 3 2 2 5 7 7 5 5
4 4 3 3 3 3 3 5 6 5 5 5 5 5 5 4 4 5 5 5 4 4 4 4 3 2 2 3 4 4 4 3 2 2 4 12 16 16
Wind_Direction
206 206 205 202 195 194 188 184 178 190 209 206 194 196 188 186 185 184 189 197 196 195 192 190 189 189 189 190 189 186 180 176 176 182 190 200 214 241
190 195 208 206 204 201 199 194 191 184 198 200 195 186 174 177 175 177 185 193 194 195 195 193 189 188 188 187 183 179 176 171 169 172 169 174 179 198
111 188 208 199 205 207 201 194 192 181 186 185 171 157 156 159 154 156 166 174 185 193 193 192 187 183 184 182 175 168 163 157 153 153 153 146 130 114
63 77 158 182 200 200 196 195 193 184 176 171 164 154 155 164 153 146 151 164 167 184 188 188 183 176 174 168 160 154 148 143 139 139 137 131 121 108
43 60 47 110 173 186 186 187 187 181 169 161 161 150 133 144 137 131 126 119 134 145 158 161 155 153 154 152 146 142 137 131 126 123 120 115 109 102
33 39 51 105 159 174 178 179 173 167 160 154 146 137 129 135 137 135 124 113 110 107 102 104 106 107 114 122 125 127 126 122 118 114 110 107 103 98
28 33 44 94 136 148 158 160 159 159 158 155 149 140 144 148 150 142 134 122 104 109 106 95 94 89 91 102 113 120 120 119 116 113 109 106 103 100
30 25 30 43 67 91 132 148 152 157 165 162 159 160 161 153 142 144 141 138 127 125 109 92 88 90 84 96 112 116 117 116 114 112 110 107 104 101
38 50 57 59 55 54 81 103 121 152 164 162 166 171 164 160 151 152 150 139 125 136 115 95 81 86 84 100 108 112 114 114 113 112 112 110 107 104
33 48 71 67 61 69 78 79 69 66 136 164 168 168 162 158 154 145 135 115 108 105 98 105 88 79 74 83 102 110 113 115 115 117 118 117 114 110
28 40 71 82 82 90 87 87 77 59 69 105 122 132 146 147 140 133 135 137 134 116 83 106 120 94 66 50 79 104 115 119 122 127 132 130 122 112
27 28 44 71 82 94 96 99 91 68 80 90 92 103 122 142 146 149 150 148 140 129 135 116 140 132 108 61 52 97 109 112 118 130 150 155 141 119
40 22 16 58 83 86 87 88 98 98 90 95 98 103 108 119 126 125 137 149 145 134 153 134 145 135 125 138 156 165 146 126 109 101 118 146 158 147
48 13 14 64 85 84 84 90 90 88 86 88 93 99 108 113 116 112 106 97 95 131 154 144 140 151 134 137 161 165 176 171 141 123 111 112 119 137
28 37 56 71 77 72 84 88 82 83 88 89 90 85 84 101 106 102 91 89 85 100 133 145 137 140 132 144 153 153 163 191 183 163 158 147 146 139
30 55 66 70 70 71 76 76 72 82 95 97 94 87 84 92 100 106 109 104 93 62 41 81 143 137 129 129 140 148 157 169 172 175 166 184 208 205
69 68 67 68 71 68 74 82 81 83 89 92 100 101 100 100 94 87 100 95 99 108 65 43 77 84 82 120 125 138 143 149 160 154 150 185 244 228
94 84 81 85 95 102 104 92 89 99 102 109 110 112 114 113 104 88 92 107 113 111 110 114 110 87 67 45 61 142 146 156 156 152 149 170 239 245
92 97 102 112 118 122 125 121 119 122 117 120 122 122 120 117 117 117 114 111 112 112 112 113 108 110 118 169 322 107 160 162 150 157 180 186 218 246
88 108 113 120 127 132 136 132 127 126 121 125 128 130 129 129 131 137 141 140 137 130 127 124 145 152 167 181 189 197 176 164 164 179 197 210 243 286
125 126 136 135 135 137 140 140 141 141 140 136 137 139 139 134 141 150 154 154 143 146 165 192 200 142 118 103 108 216 249 204 192 181 177 179 225 273
191 182 177 168 155 147 146 144 140 142 145 143 148 149 149 148 155 159 161 162 167 171 177 170 137 128 128 150 178 199 214 230 230 221 216 206 179 203
201 196 189 177 167 156 153 156 155 158 160 157 155 155 152 151 157 160 165 166 161 160 152 155 155 153 163 169 179 193 200 202 210 254 264 246 243 248
Height
1486 1488 1491 1493 1496 1499 1502 1505 1509 1511 1513 1516 1519 1522 1525 1529 1532 1535 1538 1542 1545 1547 1549 1551 1553 1555 1556 1558 1559 1560 1561 1561 1562 1562 1563 1563 1562 1562
1481 1483 1485 1487 1490 1493 1495 1499 1502 1506 1508 1511 1514 1517 1521 1524 1527 1530 1534 1538 1541 1544 1546 1549 1551 1553 1554 1556 1557 1558 1559 1560 1560 1561 1561 1561 1560 1560
1479 1480 1481 1482 1485 1487 1490 1492 1496 1499 1502 1506 1510 1513 1516 1520 1523 1527 1530 1533 1537 1540 1543 1546 1548 1550 1552 1554 1555 1556 1557 1558 1558 1558 1558 1558 1558 1558
1477 1477 1478 1479 1481 1483 1485 1487 1490 1494 1497 1500 1505 1508 1512 1516 1519 1523 1526 1530 1533 1536 1539 1542 1545 1547 1549 1551 1553 1554 1555 1556 1556 1556 1556 1556 1556 1555
1476 1476 1476 1476 1478 1479 1481 1483 1486 1489 1493 1496 1500 1504 1508 1512 1516 1520 1523 1527 1530 1533 1536 1539 1541 1544 1546 1549 1550 1552 1553 1554 1554 1554 1554 1554 1553 1553
1476 1476 1475 1475 1476 1477 1478 1480 1482 1485 1489 1492 1496 1500 1504 1509 1513 1516 1520 1524 1527 1531 1533 1536 1538 1541 1543 1546 1548 1549 1550 1551 1552 1552 1552 1552 1551 1551
1476 1476 1475 1475 1475 1475 1476 1477 1479 1482 1485 1489 1493 1497 1501 1505 1509 1514 1517 1521 1525 1528 1531 1533 1536 1538 1541 1543 1545 1547 1548 1549 1549 1550 1550 1550 1550 1549
1477 1476 1476 1475 1474 1474 1475 1476 1478 1480 1483 1486 1489 1493 1497 1501 1506 1510 1514 1519 1523 1527 1529 1532 1535 1537 1539 1541 1543 1545 1546 1547 1548 1548 1548 1549 1548 1548
1477 1476 1476 1475 1475 1475 1475 1476 1478 1480 1482 1485 1487 1491 1495 1498 1503 1508 1512 1516 1520 1524 1528 1531 1534 1536 1539 1541 1542 1544 1545 1546 1547 1547 1548 1548 1548 1547
1477 1477 1477 1476 1476 1476 1476 1477 1478 1480 1482 1484 1487 1490 1493 1497 1501 1506 1510 1515 1519 1523 1527 1530 1533 1535 1538 1540 1542 1543 1545 1546 1547 1547 1547 1547 1547 1546
1477 1477 1478 1478 1478 1478 1478 1478 1479 1481 1483 1485 1486 1489 1492 1496 1499 1504 1508 1512 1517 1522 1526 1528 1532 1535 1538 1539 1541 1543 1544 1546 1546 1546 1546 1546 1546 1545
1478 1478 1479 1479 1479 1480 1480 1480 1481 1482 1484 1485 1487 1490 1492 1495 1499 1503 1507 1511 1515 1520 1524 1527 1530 1533 1537 1539 1541 1542 1544 1545 1545 1545 1545 1545 1545 1544
1479 1479 1480 1480 1481 1482 1482 1483 1483 1484 1485 1487 1489 1491 1493 1496 1499 1503 1507 1511 1515 1518 1522 1526 1529 1532 1534 1537 1540 1542 1543 1544 1544 1544 1544 1544 1544 1544
1480 1481 1481 1482 1483 1484 1485 1485 1486 1487 1487 1489 1490 1492 1494 1497 1500 1504 1507 1512 1516 1519 1522 1526 1528 1531 1533 1535 1538 1540 1541 1542 1543 1543 1543 1543 1543 1543
1482 1482 1483 1484 1486 1487 1488 1488 1489 1490 1490 1492 1493 1495 1497 1499 1502 1505 1509 1513 1516 1520 1523 1526 1529 1531 1533 1535 1536 1538 1539 1540 1541 1542 1542 1542 1542 1542
1484 1484 1485 1486 1488 1489 1490 1491 1492 1493 1494 1496 1497 1498 1500 1502 1505 1508 1511 1514 1517 1520 1523 1526 1529 1531 1533 1535 1536 1536 1538 1538 1539 1540 1541 1541 1541 1541
1486 1487 1488 1489 1490 1491 1492 1494 1495 1497 1498 1500 1501 1502 1504 1506 1508 1511 1514 1516 1518 1520 1523 1525 1528 1530 1532 1534 1534 1535 1536 1537 1538 1539 1539 1540 1540 1540
1489 1489 1490 1491 1492 1494 1495 1497 1498 1500 1502 1503 1505 1506 1508 1510 1512 1514 1516 1518 1520 1521 1523 1525 1527 1529 1531 1532 1534 1534 1534 1535 1536 1536 1537 1538 1538 1539
1491 1491 1492 1493 1494 1496 1497 1499 1501 1503 1504 1506 1508 1509 1511 1512 1514 1515 1517 1518 1520 1521 1522 1524 1526 1527 1529 1530 1531 1532 1533 1533 1534 1534 1535 1535 1536 1536
1492 1493 1493 1495 1496 1497 1499 1501 1502 1504 1506 1508 1509 1511 1512 1514 1515 1516 1517 1518 1519 1520 1522 1523 1524 1526 1528 1529 1530 1530 1531 1531 1532 1532 1532 1533 1533 1534
1492 1493 1494 1495 1497 1498 1500 1501 1503 1505 1506 1508 1510 1511 1513 1514 1515 1516 1517 1518 1519 1520 1521 1522 1524 1525 1526 1527 1527 1528 1528 1529 1529 1529 1530 1530 1530 1530
1492 1493 1494 1495 1497 1498 1500 1501 1503 1505 1506 1508 1510 1511 1512 1513 1514 1515 1516 1517 1518 1519 1520 1521 1522 1523 1524 1524 1525 1525 1526 1526 1526 1526 1527 1527 1527 1526
1492 1493 1494 1495 1496 1498 1499 1501 1502 1504 1506 1507 1509 1510 1511 1512 1513 1513 1514 1515 1516 1517 1518 1519 1519 1520 1520 1521 1522 1522 1523 1523 1523 1523 1523 1523 1523 1523